Wind_Speed
15 15 16 17 17 18 19 20 20 21 21 21 21 21 21 21 21 22 23 23 22 22 22 21 21 20 20 20 20 20 21 21 20 20 20 20 20 20 20 21 21 20 20 20 20 19 19 19 19 18 18 18 18 19 20 21 22 23 23 23 23 22 22 21 21 21 21 21 21 21 21 22 23 23 25 25 26 26 26 27 29 29 29 30 31
15 15 15 16 17 17 18 19 20 20 21 21 21 21 21 21 21 22 22 21 21 21 20 20 19 19 19 19 19 19 20 20 19 19 20 20 20 20 20 20 20 19 19 19 19 19 18 18 18 18 18 18 19 20 21 22 22 23 23 23 22 22 21 21 21 21 21 21 21 22 22 23 24 24 25 26 26 26 26 28 29 29 29 30 32
16 15 15 16 16 16 17 18 19 19 20 20 21 21 20 20 21 21 20 20 20 19 20 19 18 17 18 18 18 19 20 19 18 18 19 20 20 20 20 19 19 18 18 18 18 18 18 18 18 18 18 18 19 20 21 22 22 22 22 22 21 21 21 21 21 21 22 22 22 23 23 24 25 25 26 26 26 26 27 28 29 29 30 31 33
15 15 15 15 16 16 17 18 18 18 19 19 20 20 20 20 20 20 19 19 19 18 18 17 16 16 17 17 16 18 19 18 17 17 18 19 20 20 19 19 18 18 17 17 17 17 17 17 18 18 19 19 20 21 21 22 22 22 21 21 21 21 21 21 21 22 22 23 23 24 25 25 25 26 27 27 26 26 27 28 28 29 30 32 34
15 15 15 15 15 15 16 17 17 17 18 19 19 19 20 19 18 18 18 17 17 16 16 15 15 16 16 16 15 17 18 17 16 16 17 18 19 19 19 18 18 18 17 17 17 17 17 17 18 19 20 20 21 21 21 21 21 21 21 21 21 21 21 22 22 22 23 23 23 25 25 26 26 27 27 27 26 26 27 28 28 29 31 33 35
15 15 16 15 15 15 15 15 16 16 17 18 18 18 18 18 17 17 17 17 15 14 14 13 14 14 14 14 14 16 16 15 15 15 16 18 19 19 18 18 17 17 17 17 16 16 16 17 19 20 21 21 21 21 21 21 20 20 20 21 21 21 21 21 22 22 22 23 24 25 25 25 26 27 28 27 26 26 27 27 28 29 31 33 35
15 15 15 15 14 14 14 14 15 16 16 17 16 17 17 16 16 16 16 16 14 13 12 11 12 13 12 13 14 15 15 15 14 14 15 17 18 18 17 17 16 16 16 16 16 16 17 18 19 20 21 22 21 21 21 20 20 20 20 20 20 20 21 21 21 21 22 22 24 25 25 25 26 27 28 27 26 26 26 27 28 29 31 33 34
15 15 15 15 14 14 14 15 15 15 15 15 15 16 16 15 15 15 15 15 13 11 11 11 12 12 11 12 13 14 14 14 14 14 15 17 18 17 17 16 15 16 16 16 16 16 17 18 19 21 21 21 21 21 20 20 20 19 19 19 19 20 20 20 21 21 22 22 23 24 25 26 27 28 28 27 26 26 26 26 27 28 30 32 33
15 16 16 15 15 15 15 16 16 15 15 15 15 15 15 16 16 15 14 14 13 11 10 11 11 10 11 11 12 13 13 13 14 15 15 17 17 16 16 15 15 15 15 16 16 17 18 18 19 20 21 21 21 20 20 19 19 18 18 19 19 19 20 20 20 21 22 22 23 24 25 26 27 28 28 27 26 25 25 25 26 27 28 30 31
15 16 16 15 15 16 16 16 16 15 15 15 15 15 15 15 16 15 14 13 13 12 10 10 11 10 11 11 11 12 13 13 14 15 15 17 17 16 14 14 14 14 15 16 16 17 18 18 19 20 20 20 20 20 19 19 18 18 18 18 18 19 19 19 20 21 21 22 23 24 25 26 27 28 28 28 26 25 24 24 24 25 26 28 29
15 15 15 14 14 14 15 15 15 15 15 15 14 15 15 14 14 15 14 13 13 13 11 10 11 11 11 11 10 11 12 13 14 14 15 16 17 16 14 14 13 13 15 15 16 17 17 17 18 19 20 19 19 19 19 18 17 17 17 17 17 18 19 19 20 21 21 22 24 25 25 26 27 27 28 28 27 25 24 23 23 24 25 26 28
14 14 14 13 13 13 13 13 14 14 15 15 14 14 14 14 13 13 13 13 13 13 11 10 11 11 11 10 10 10 11 13 13 13 14 15 16 15 14 13 13 13 14 15 15 16 17 17 17 18 19 19 19 19 18 17 16 15 15 16 17 17 18 18 19 21 22 23 23 24 25 25 26 26 27 27 27 26 24 23 22 22 23 25 27
13 13 12 13 13 13 13 13 13 13 13 14 14 13 13 13 13 12 12 12 12 12 11 10 11 11 10 10 10 11 12 12 12 13 14 14 14 14 13 13 12 12 13 14 14 15 16 17 16 17 17 17 18 18 17 16 14 13 13 14 16 16 17 17 19 20 21 22 23 23 24 24 24 25 26 27 27 27 25 23 22 21 22 24 25
12 11 11 12 12 12 12 12 12 12 12 12 12 12 12 12 12 11 10 11 11 11 10 10 10 10 10 10 10 11 12 12 12 12 12 12 12 13 12 11 11 11 12 13 15 15 16 16 16 16 16 15 16 18 17 15 13 12 12 13 14 14 15 16 17 18 20 21 21 22 23 23 23 24 25 26 27 27 27 26 24 22 22 23 25
10 10 10 10 11 12 12 11 11 11 11 11 11 11 11 11 11 10 10 9 9 10 10 9 9 9 9 10 10 10 11 11 11 11 11 11 10 11 11 10 9 10 11 12 14 15 15 16 16 15 14 13 14 17 16 14 12 10 10 11 12 13 13 14 15 16 18 19 20 21 22 22 23 24 25 26 26 28 28 28 26 24 23 23 24
9 9 9 9 10 10 11 11 11 11 10 10 10 10 10 10 10 10 9 9 8 9 10 9 8 8 9 10 10 11 11 10 11 11 11 10 9 9 10 9 8 8 9 10 13 14 14 15 15 14 12 11 13 15 15 13 10 9 9 10 10 11 12 13 14 15 16 17 18 19 21 22 23 24 24 25 26 27 28 29 28 27 26 25 25
8 7 8 8 8 9 9 10 10 9 10 10 10 10 9 9 9 9 9 9 8 8 9 9 9 8 9 9 10 11 11 10 10 11 10 9 8 7 8 8 7 6 6 8 11 13 13 13 13 12 11 10 11 13 13 11 9 8 8 9 9 9 11 12 13 14 14 16 17 18 19 20 22 23 24 24 25 26 27 28 28 28 28 27 27
7 7 7 8 8 8 8 8 8 8 8 9 10 10 9 9 9 9 9 8 8 8 9 9 9 8 9 10 10 10 10 9 10 10 10 8 7 6 6 7 7 5 4 6 10 11 11 11 11 11 10 10 10 11 11 9 7 6 7 7 8 9 9 11 12 13 14 14 15 16 17 19 21 22 23 23 24 24 25 26 27 28 29 29 29
7 7 7 8 8 8 8 8 8 8 8 8 9 10 10 9 9 9 9 9 8 8 8 8 9 9 9 10 10 10 10 9 9 10 9 8 7 6 5 5 6 5 4 5 8 9 9 9 10 9 9 9 8 8 8 6 4 5 6 6 7 8 9 10 12 12 13 14 15 16 17 18 19 21 22 23 23 23 24 25 27 28 28 29 30
7 7 7 7 8 8 8 8 8 8 8 8 8 9 10 10 9 9 9 9 8 8 8 8 8 8 9 9 9 10 10 8 8 9 9 8 7 6 5 4 4 4 4 5 7 8 8 8 8 8 8 7 5 6 6 4 2 3 5 6 6 8 9 10 12 12 13 14 16 16 17 18 19 20 21 22 22 22 23 25 26 27 28 29 29
7 7 7 7 8 8 8 8 8 8 8 8 8 9 9 10 10 9 9 8 8 8 8 8 8 8 8 9 9 9 10 9 8 8 8 9 7 5 4 3 2 2 2 3 4 6 7 7 6 6 7 5 3 3 3 1 1 3 4 5 6 8 10 11 12 13 14 15 16 17 18 18 19 19 20 21 22 22 23 24 25 26 26 27 29
7 7 7 7 7 7 8 8 8 8 8 7 7 8 8 9 10 9 9 8 8 8 7 8 8 8 8 8 8 8 9 9 9 8 8 8 8 6 4 3 2 2 2 2 3 4 5 5 5 5 5 5 3 2 1 2 2 4 5 6 7 9 11 12 13 14 15 15 16 17 18 19 19 19 20 20 21 22 23 23 23 24 25 26 27
8 8 8 8 7 7 7 8 8 8 7 7 7 7 7 8 9 9 9 8 8 7 7 7 7 8 8 8 8 7 7 7 8 8 8 8 8 8 6 4 3 2 2 2 2 3 4 4 3 3 3 3 3 2 2 3 4 5 6 7 8 10 11 13 14 15 16 16 17 18 19 19 20 20 20 20 21 22 23 23 23 23 24 24 26
8 8 8 8 8 7 7 7 8 8 7 7 7 6 7 8 8 9 9 9 8 8 7 7 7 7 8 8 8 8 8 6 6 7 8 7 7 7 7 5 5 4 3 3 2 2 3 3 2 2 2 2 3 3 4 5 6 6 7 8 9 10 12 13 14 15 16 17 18 19 20 20 21 21 21 21 21 22 23 23 23 23 23 23 24
8 9 9 8 8 7 7 7 7 8 7 6 6 6 6 7 8 9 9 9 9 9 8 8 7 7 8 8 8 8 9 8 6 6 7 7 6 6 5 5 5 5 4 4 3 2 3 3 3 4 4 4 4 5 5 6 7 7 8 9 9 10 12 13 15 16 17 18 18 19 20 21 21 22 22 22 22 23 23 24 24 24 23 22 22
9 9 10 9 9 8 8 7 7 7 7 6 6 6 6 7 8 9 9 9 9 9 9 9 8 7 8 8 8 8 8 9 9 8 7 7 7 7 6 5 5 5 5 5 4 3 3 4 5 5 5 5 5 6 7 7 7 8 8 9 10 11 12 14 15 16 17 18 19 20 20 20 21 22 22 23 23 24 24 24 24 24 23 22 21
9 10 10 10 10 9 8 8 7 7 7 6 6 6 6 7 7 8 9 9 9 9 10 10 9 8 8 7 8 8 8 9 10 10 9 8 7 7 7 7 6 5 5 4 3 3 5 6 6 6 6 6 6 7 8 9 9 9 9 9 10 11 13 14 16 17 18 19 20 20 21 21 21 22 23 23 24 24 24 24 24 24 23 21 20
10 11 11 11 11 10 10 9 8 8 7 6 6 6 6 8 7 8 9 9 9 9 10 11 10 9 9 8 8 8 9 9 9 9 8 8 7 7 7 7 7 7 6 4 3 4 5 5 6 7 6 7 8 8 9 10 10 11 11 11 12 13 14 16 17 18 19 19 20 20 21 21 21 22 23 23 23 23 23 23 23 23 22 20 19
11 11 12 12 12 12 11 10 10 9 8 7 7 6 7 7 8 8 8 9 9 9 11 12 12 11 10 9 9 9 9 8 7 7 7 8 8 9 8 8 8 8 7 6 5 6 5 5 6 7 7 8 9 9 9 10 11 12 13 14 15 16 17 18 18 19 20 20 20 20 20 21 21 21 22 22 22 22 22 22 21 21 21 20 18
12 12 13 13 12 12 12 11 11 10 9 8 7 7 7 8 8 8 8 9 9 10 11 12 12 12 12 11 10 9 8 8 8 8 8 9 9 8 8 8 8 7 7 6 6 7 6 6 7 6 7 9 10 10 11 11 12 13 14 15 17 18 19 20 20 21 22 22 23 23 22 22 21 21 21 20 21 21 21 20 20 20 19 19 18
14 14 14 13 13 13 12 12 11 11 10 10 9 8 8 9 9 9 9 9 9 10 11 12 13 13 13 13 12 11 10 9 9 8 8 8 7 7 7 8 7 6 6 7 7 7 7 7 8 7 8 10 10 11 12 13 13 14 15 16 17 18 20 21 22 23 24 24 24 24 24 23 22 22 21 20 19 20 20 19 19 18 18 17 17
15 15 14 14 14 14 13 12 12 11 11 11 11 10 10 10 10 10 10 10 10 11 11 12 13 14 14 14 14 13 12 11 10 9 8 8 7 6 7 7 7 7 7 8 8 8 8 9 9 8 9 10 11 12 13 13 14 15 17 17 18 18 20 21 22 23 23 23 23 23 23 22 22 21 20 19 18 18 17 17 18 17 16 16 16
16 16 15 15 15 15 14 13 13 12 12 12 12 11 12 11 11 11 11 11 11 11 11 12 13 13 14 15 14 14 13 13 12 11 10 9 9 8 8 8 8 8 9 9 9 9 9 10 10 10 10 12 13 13 14 15 16 17 18 19 19 19 20 21 21 21 21 21 21 21 21 20 20 20 19 18 17 16 15 15 16 16 15 15 14
16 16 15 15 15 15 15 14 14 13 12 11 12 12 12 12 12 12 12 12 11 11 11 12 12 13 13 14 14 14 14 14 14 14 13 12 12 12 11 11 11 10 10 10 10 10 10 11 12 12 12 14 15 16 16 17 17 18 19 19 19 19 19 20 20 20 19 18 18 17 18 18 18 18 17 16 15 14 13 13 14 15 15 14 13
15 16 15 15 15 15 15 15 14 13 12 12 12 12 12 13 13 12 12 12 12 12 11 11 12 13 13 13 14 14 15 15 15 14 14 14 14 14 14 14 13 12 12 12 12 12 12 13 14 15 15 15 17 18 18 18 18 19 19 19 18 18 18 18 18 17 16 16 15 15 14 15 15 16 15 14 14 13 12 12 13 14 14 14 13
14 15 15 15 15 15 15 15 15 14 13 12 12 12 13 13 13 13 13 12 13 13 12 12 12 13 13 13 13 14 14 15 15 15 15 15 15 15 15 15 14 14 14 14 14 14 14 14 15 15 16 16 17 18 18 18 18 18 18 18 18 16 15 15 15 15 15 15 14 14 13 13 14 14 15 14 14 13 13 12 12 13 14 14 14
13 13 14 15 16 15 15 14 14 14 13 12 12 13 13 14 14 14 14 13 13 13 13 13 13 13 13 13 13 14 15 15 15 15 15 15 15 15 15 15 15 15 15 15 15 15 14 15 15 15 15 16 16 17 17 17 18 18 17 16 15 14 13 13 14 14 15 15 15 15 14 14 13 13 14 14 14 13 12 12 12 12 13 13 13
13 13 13 15 16 16 15 15 14 14 14 13 13 13 14 14 15 15 15 15 14 14 14 14 14 14 14 14 14 15 15 15 15 16 16 15 16 16 16 16 16 15 15 15 15 14 14 14 14 14 14 14 15 16 16 15 16 16 15 14 14 14 13 14 14 14 14 15 15 15 15 14 14 14 14 14 14 13 12 12 11 11 12 12 12
14 14 13 14 15 16 16 16 15 15 15 15 14 14 15 15 16 16 17 16 16 15 15 15 15 15 15 15 16 16 16 16 16 16 16 16 16 16 16 16 16 15 15 15 14 14 14 14 14 15 15 14 15 15 15 14 14 14 13 13 14 15 15 15 16 15 15 14 14 14 14 14 15 15 15 15 14 13 12 11 11 11 12 12 12
16 16 15 14 14 16 16 17 16 16 16 16 16 16 16 16 17 17 17 18 17 17 17 16 16 16 16 17 17 17 17 17 17 17 17 17 17 17 17 17 16 16 16 16 15 15 15 15 15 15 15 14 14 14 14 14 13 13 12 12 13 15 16 17 18 17 15 13 13 13 13 14 15 16 16 16 16 15 13 12 12 12 13 13 13
18 18 17 16 15 16 17 17 17 16 16 17 18 18 17 17 17 17 17 18 18 18 19 18 18 18 18 18 18 19 19 19 18 18 18 18 18 18 18 18 18 18 17 17 17 17 16 16 16 15 13 14 14 13 13 14 13 13 13 13 13 14 16 17 18 18 15 13 13 15 15 15 15 16 17 17 16 15 14 13 13 13 14 14 14
21 20 19 18 17 17 18 19 18 18 18 18 19 19 19 18 18 18 18 18 18 19 19 19 19 19 19 19 20 20 20 20 20 20 20 20 20 20 20 19 19 19 18 18 18 17 17 16 15 14 13 14 15 14 13 14 14 12 13 13 13 13 14 15 18 20 19 16 15 17 18 17 16 16 18 18 17 16 15 14 14 14 15 15 16
22 21 20 19 19 19 19 19 20 20 20 21 21 21 21 20 20 19 19 19 19 19 19 20 20 21 21 21 21 21 22 22 22 22 22 22 22 22 22 21 20 19 19 18 18 18 17 16 16 15 14 15 16 15 14 14 14 13 13 14 13 13 14 14 16 19 21 19 17 18 20 21 18 17 18 19 19 18 17 16 16 16 17 17 18
24 22 21 21 21 20 20 20 20 20 21 22 22 22 22 22 21 21 20 20 19 19 20 20 21 22 22 22 22 22 22 23 24 24 24 24 24 24 23 22 21 20 19 19 19 18 17 17 16 16 16 16 16 16 14 13 12 13 14 15 14 14 15 16 16 18 21 22 19 18 20 22 20 18 19 19 19 20 19 18 18 18 19 19 20
27 24 22 22 22 21 22 22 21 21 22 22 22 22 22 22 22 21 21 20 20 20 20 20 21 22 23 23 23 23 23 23 24 24 25 25 25 24 24 22 21 20 20 20 20 19 19 18 17 17 17 16 15 15 15 13 12 14 15 16 17 17 17 19 19 20 23 25 22 19 20 23 23 20 20 19 19 21 21 21 20 21 21 21 21
29 27 26 25 24 24 24 25 24 23 23 23 23 22 22 22 22 21 21 21 21 21 21 21 21 22 23 23 23 23 24 24 24 24 24 25 24 24 23 23 22 21 21 21 21 20 20 18 17 18 19 17 16 16 17 16 15 16 17 18 19 20 21 22 22 24 26 27 24 21 21 24 25 23 22 21 20 22 24 23 23 23 22 22 22
29 29 29 28 27 27 27 27 27 26 25 24 23 23 23 24 24 24 24 23 23 22 22 22 22 22 22 23 23 23 24 24 24 25 24 24 24 23 22 22 22 22 21 21 22 21 21 20 19 19 20 20 18 18 19 20 19 20 20 20 21 23 24 25 25 27 28 29 27 23 21 24 26 24 24 24 23 23 25 25 26 25 23 22 22
29 28 29 30 30 29 29 29 29 28 27 25 24 24 25 26 27 27 26 26 26 25 25 24 24 24 23 23 23 23 24 25 25 25 25 25 24 23 22 22 22 22 21 22 22 22 21 21 20 20 20 21 21 20 21 22 23 23 23 23 25 27 27 26 27 28 28 29 29 25 21 23 25 24 23 24 24 24 25 25 26 26 24 22 22
27 28 29 30 31 31 30 29 30 30 29 27 27 27 28 29 30 29 29 28 27 26 26 26 26 25 25 24 24 24 24 25 26 26 27 26 25 24 23 22 22 21 21 23 24 24 23 23 22 21 21 22 23 23 24 24 25 26 26 25 28 30 29 27 26 26 26 28 30 26 22 22 24 23 22 22 23 24 23 23 24 25 24 23 22
24 26 28 31 32 31 30 29 30 30 31 31 31 31 31 31 31 31 30 29 27 26 26 26 27 26 26 26 25 25 25 26 27 27 27 27 25 24 24 23 22 21 21 24 25 25 25 24 23 23 23 24 24 25 25 26 28 29 28 27 29 30 29 26 26 25 24 27 30 29 24 23 24 24 22 21 21 23 23 22 22 23 24 23 22
23 24 26 29 31 30 29 29 29 30 32 33 33 33 32 32 32 32 31 29 28 28 27 27 27 27 27 26 26 26 26 27 28 28 28 27 26 24 24 23 22 22 24 27 27 25 25 25 24 24 24 24 25 26 26 28 29 30 29 29 29 29 27 25 25 24 22 25 29 30 26 24 25 25 23 21 20 22 23 22 22 23 23 23 23
Wind_Direction
91 90 92 94 95 97 98 99 100 101 101 101 102 104 107 109 110 109 108 110 111 109 106 104 103 103 103 102 103 102 100 100 101 101 100 100 99 97 94 91 89 88 86 84 83 82 81 79 77 76 74 74 76 78 82 84 85 86 87 87 87 85 82 79 75 70 65 60 56 53 50 48 46 44 41 39 41 45 45 44 43 40 35 32 31
92 92 92 92 93 95 97 99 101 102 103 105 105 107 109 110 107 105 106 109 109 107 105 103 104 104 103 104 104 103 102 103 104 103 102 101 99 96 93 91 90 88 86 84 83 83 81 79 77 76 76 78 80 83 86 87 88 89 89 89 87 85 81 77 72 66 62 57 53 50 48 46 44 42 39 40 44 46 45 44 42 38 34 31 31
93 92 92 93 94 95 98 100 101 103 104 106 106 107 107 105 103 104 110 114 113 111 109 107 107 106 104 105 106 105 105 106 106 105 104 102 99 96 94 93 91 89 87 85 85 84 81 79 77 77 79 82 84 87 90 91 91 91 91 89 87 83 78 73 68 63 59 55 51 49 47 45 43 40 38 41 46 46 44 43 41 37 33 31 32
97 96 95 96 97 98 98 100 102 104 105 106 106 106 104 103 105 110 117 119 117 115 113 111 110 106 105 107 107 106 106 108 109 108 106 103 100 98 95 93 91 88 86 85 85 84 82 80 80 82 84 86 88 90 93 93 92 92 91 88 84 79 74 69 65 61 57 53 50 47 46 43 41 39 37 42 46 46 45 43 40 36 33 32 32
101 101 99 98 98 98 98 99 101 104 105 105 106 107 106 107 112 116 119 117 116 115 114 114 111 107 107 109 108 106 108 110 111 110 107 104 102 101 98 95 92 88 85 84 84 83 82 83 85 87 89 90 92 94 94 94 93 91 89 85 80 75 71 67 62 59 56 52 50 47 45 42 40 37 37 42 46 46 46 44 40 36 34 33 33
103 103 100 99 99 98 97 99 102 104 105 105 107 108 109 114 117 118 118 115 115 115 114 114 110 107 108 110 109 108 112 113 113 112 108 105 104 102 100 98 94 90 88 85 83 81 82 85 89 92 92 93 95 96 95 94 92 89 85 81 77 73 69 65 61 58 55 52 50 47 44 41 39 37 37 41 44 46 46 44 40 36 34 33 33
104 104 102 101 100 99 99 101 102 103 104 105 108 110 110 113 115 114 113 112 113 113 112 111 108 108 111 112 111 112 115 116 114 112 109 106 104 103 101 98 95 92 90 87 84 83 85 89 93 95 96 96 97 97 95 93 89 86 82 79 75 71 67 63 60 57 54 52 49 46 43 40 38 36 37 40 43 45 46 44 40 37 34 33 32
105 105 105 104 103 103 103 102 100 101 104 106 109 110 110 110 109 108 108 109 111 111 111 109 106 109 112 111 111 113 116 117 116 113 109 107 105 103 101 98 95 93 92 89 86 87 90 94 98 99 99 99 98 96 94 91 88 84 81 77 73 69 66 62 58 55 52 50 48 46 42 39 37 35 36 38 41 44 45 44 41 38 35 33 31
108 107 106 106 105 104 101 99 98 101 106 108 109 109 109 109 108 105 105 107 109 110 112 113 112 112 112 112 113 117 121 120 117 114 110 108 105 103 101 99 96 93 92 89 89 92 96 100 103 103 102 101 99 96 92 89 86 83 79 75 71 67 64 60 56 54 51 49 47 45 42 39 37 35 34 36 39 42 44 44 41 38 36 32 30
108 107 105 104 103 101 99 98 100 104 107 109 109 108 108 109 107 104 101 102 104 106 110 112 115 116 117 121 121 121 124 121 116 115 114 111 107 104 102 99 97 95 93 91 93 98 102 106 107 106 104 101 99 95 91 87 83 79 76 72 69 65 62 58 55 53 50 48 47 45 42 39 37 35 33 34 36 40 42 43 40 37 35 31 28
106 104 104 104 102 102 102 102 104 106 106 107 108 109 110 109 106 103 101 98 98 102 106 108 111 115 118 121 120 120 122 119 117 118 117 114 110 107 104 100 97 95 93 93 98 104 108 111 112 109 106 103 99 95 90 85 81 78 74 71 68 64 61 57 55 52 49 47 45 44 41 38 36 34 32 32 33 36 39 41 40 36 33 29 26
106 105 107 106 105 105 105 106 106 106 107 108 109 111 112 110 106 103 102 99 96 98 103 105 106 109 112 112 114 117 116 116 119 120 117 114 112 110 107 103 99 96 94 97 103 109 113 115 115 111 108 105 101 95 90 84 80 76 74 71 69 65 61 58 54 52 48 45 44 42 41 38 36 34 32 30 30 33 36 38 38 35 31 27 23
110 110 110 109 108 107 106 106 106 108 111 111 113 114 113 112 110 106 102 99 97 97 102 104 103 106 107 106 111 115 114 115 118 119 117 115 113 111 109 107 102 99 99 104 110 114 118 119 115 112 111 109 104 97 89 83 79 74 73 72 70 66 62 58 55 52 49 45 43 41 40 37 35 34 32 30 28 29 32 34 36 34 30 25 21
115 115 116 113 110 108 106 106 108 110 111 112 114 116 116 116 114 111 106 102 100 98 100 100 101 104 105 105 109 112 114 117 117 118 117 115 113 112 110 107 104 103 106 112 117 121 122 120 117 115 114 113 108 100 91 84 78 72 70 69 69 66 62 59 56 53 50 46 43 40 39 37 35 34 32 30 28 27 29 31 32 32 27 22 19
120 122 122 117 112 110 109 109 109 111 110 111 114 117 120 120 119 117 112 108 106 104 104 102 100 103 103 105 111 114 116 117 117 118 118 116 115 113 111 107 104 106 112 119 123 125 125 122 120 120 120 118 110 102 95 87 78 71 66 63 63 64 61 58 54 52 49 45 42 39 37 36 33 32 31 29 27 26 27 28 29 28 24 20 16
124 123 121 117 113 113 113 112 112 113 113 113 114 117 122 124 122 121 119 117 113 109 111 111 106 104 103 105 112 120 124 122 116 117 121 123 121 115 110 106 102 104 114 125 128 127 128 126 126 127 126 121 111 104 98 90 81 72 64 57 53 56 57 54 50 48 47 44 40 37 35 33 31 30 29 28 27 25 25 25 26 27 23 20 16
129 123 118 115 117 118 116 113 111 114 116 117 117 117 121 124 124 127 127 125 121 114 112 113 112 109 107 108 112 118 125 126 120 119 124 128 126 118 109 103 99 98 115 130 128 126 132 133 133 134 133 123 112 106 101 93 85 72 62 54 45 45 52 51 45 41 42 41 38 34 32 31 29 28 27 27 26 24 24 24 24 25 24 21 18
129 123 119 117 119 120 117 115 115 118 120 119 119 119 119 122 126 131 133 132 128 123 118 116 116 114 111 113 115 119 126 129 124 123 128 133 131 126 115 108 106 107 128 134 125 127 139 142 141 144 138 125 115 110 106 98 89 73 59 51 37 33 42 48 42 35 33 34 34 32 30 28 27 26 24 24 25 23 23 23 22 23 24 22 20
126 122 119 117 115 115 116 118 119 120 120 119 120 120 121 122 126 130 135 139 136 127 122 117 117 117 116 116 120 125 131 131 126 126 132 139 142 139 131 126 124 130 146 136 128 136 150 152 152 152 139 125 122 117 113 108 93 70 55 44 28 20 26 38 39 31 28 27 26 25 25 24 23 22 21 21 22 21 21 21 21 21 22 22 21
128 123 119 115 111 113 119 120 118 118 118 119 121 122 123 124 127 130 136 142 140 133 127 122 120 120 120 121 122 125 130 132 130 132 137 145 154 154 149 151 146 147 154 141 137 148 159 165 164 155 138 133 135 128 125 121 86 51 43 34 16 7 12 25 32 27 24 23 19 17 18 18 18 18 18 17 17 19 19 18 19 19 20 20 20
132 126 121 115 112 115 119 117 115 114 115 119 122 122 124 126 129 132 137 143 145 142 136 131 130 126 125 128 127 129 134 136 138 140 145 153 160 163 163 168 170 164 160 148 148 155 166 176 174 156 143 152 167 148 146 154 24 13 18 18 5 358 1 12 21 20 19 18 15 11 11 11 11 12 13 13 13 14 16 16 15 16 17 18 19
141 137 131 124 120 119 117 115 114 112 111 116 119 120 124 127 131 133 136 143 150 150 145 140 137 135 134 135 134 134 135 138 143 148 154 159 161 169 176 176 197 202 178 184 179 164 174 187 182 162 154 169 196 196 214 287 333 350 357 360 357 355 356 2 9 11 11 11 8 5 5 5 5 7 9 10 10 10 12 12 12 12 14 16 17
151 147 142 137 132 127 122 120 120 118 117 115 115 120 127 130 135 137 137 144 151 153 153 149 145 141 138 140 140 138 134 138 145 149 159 167 168 175 182 177 191 217 214 221 219 186 195 207 195 180 174 185 217 251 279 305 324 337 344 349 353 353 353 356 0 3 4 3 1 359 359 360 360 1 3 5 7 7 7 7 7 8 10 12 14
160 155 152 146 142 139 135 131 127 125 123 120 117 122 130 135 140 145 146 148 152 156 159 157 152 147 141 143 147 147 145 145 145 149 163 174 177 181 186 181 182 199 216 232 242 227 227 238 234 223 222 224 245 272 289 305 319 328 335 343 348 350 350 352 354 357 358 357 356 355 354 355 355 356 358 360 2 4 4 3 3 4 5 7 10
169 162 160 155 151 152 150 141 134 130 128 125 123 124 133 141 146 152 154 153 156 159 164 164 159 152 147 148 153 154 152 149 150 160 172 179 181 185 193 195 192 193 200 211 224 239 255 267 265 258 260 263 271 281 292 302 312 322 330 338 344 346 348 349 351 353 354 353 352 351 350 350 351 352 354 356 357 360 1 0 360 360 1 3 5
178 170 167 163 160 163 161 150 142 141 138 135 132 130 137 143 148 156 158 157 160 163 167 168 164 157 154 154 156 157 155 155 160 173 187 190 187 187 191 199 205 204 204 208 209 210 231 247 257 263 267 275 283 290 299 306 312 319 325 332 338 341 343 345 347 349 349 348 348 347 347 347 347 348 350 352 354 355 357 357 356 356 356 358 360
184 179 175 170 167 169 168 160 155 154 150 144 140 140 143 144 148 157 159 158 163 167 169 169 167 163 160 158 157 157 161 167 172 180 192 200 197 195 193 194 205 212 218 227 224 214 223 240 257 271 279 284 289 294 303 310 316 321 324 329 333 335 338 341 343 344 343 343 343 343 344 344 344 345 346 349 351 352 354 355 354 353 352 353 355
188 185 183 179 174 174 174 170 168 169 165 156 151 151 149 145 151 160 160 160 165 171 174 172 172 170 167 164 161 162 168 177 185 189 192 196 202 206 202 200 209 219 227 236 244 245 244 249 260 275 289 291 292 298 305 310 315 320 323 326 329 332 336 340 341 341 340 340 340 340 340 341 341 341 343 346 349 352 354 355 356 355 353 351 351
192 190 190 188 182 179 178 176 176 176 176 173 166 162 158 155 160 163 161 163 167 174 178 176 176 176 176 173 169 168 169 175 188 196 194 196 206 212 208 208 216 225 231 232 235 250 260 263 265 276 284 285 292 301 303 306 310 314 318 321 326 330 333 335 336 336 336 337 339 340 341 341 342 343 345 347 350 352 355 357 358 358 357 355 355
197 195 194 195 191 185 182 181 182 182 182 184 182 177 173 170 169 165 164 167 170 175 179 179 178 181 184 182 178 179 176 173 183 191 193 203 215 218 216 217 222 227 234 235 236 246 257 264 271 277 275 278 289 296 298 304 308 310 313 316 320 323 325 327 329 329 331 334 337 341 343 345 348 350 351 352 353 353 355 358 360 0 1 1 1
203 200 197 197 197 194 190 188 189 188 186 188 191 188 186 184 178 172 170 173 176 177 180 182 182 185 190 188 185 190 189 182 187 192 191 202 215 217 219 226 231 233 237 241 244 248 253 261 271 275 273 279 287 290 293 299 303 305 308 309 311 313 316 321 324 326 329 332 336 339 342 345 349 353 355 357 357 355 354 356 359 1 2 3 5
208 207 203 200 199 199 199 198 197 196 193 192 195 196 196 193 185 179 178 180 182 182 183 185 186 187 191 193 193 197 198 195 198 201 198 201 208 212 218 225 229 233 236 239 245 249 252 259 269 275 276 282 287 289 292 295 297 300 303 305 307 309 312 316 321 324 328 331 334 336 340 344 349 352 355 358 360 357 354 355 358 0 3 4 7
212 213 210 206 202 202 204 205 204 203 200 199 200 202 204 202 194 186 184 186 187 189 192 191 189 189 190 195 199 201 203 204 206 209 211 211 211 215 222 225 226 231 235 240 247 253 257 263 270 276 279 282 286 289 292 294 296 299 302 306 308 310 312 316 319 322 325 328 331 334 338 343 347 349 353 357 360 360 358 355 354 357 3 7 8
218 218 218 215 210 206 207 208 209 210 209 207 207 208 210 210 207 199 191 191 193 196 199 197 194 195 195 196 200 202 205 207 208 210 215 218 218 220 226 231 234 238 241 245 251 257 261 266 271 276 279 282 286 290 293 295 298 302 304 307 311 314 315 317 319 322 327 330 333 336 340 345 347 349 354 358 0 4 5 359 352 355 2 7 9
229 227 227 226 222 216 213 213 213 214 215 215 214 214 215 215 216 212 201 198 200 201 202 202 201 203 203 201 202 204 207 209 210 211 214 218 221 224 229 235 240 244 246 249 252 256 260 265 270 276 279 282 285 290 294 296 298 301 303 308 314 318 319 318 321 328 335 339 342 346 348 350 349 350 353 359 2 7 10 2 353 354 359 4 8
237 237 236 235 233 229 224 221 219 219 219 221 221 219 218 218 219 219 213 206 206 206 205 206 209 211 210 207 207 209 211 212 214 215 216 219 223 226 230 234 239 243 246 249 252 256 260 264 268 273 278 281 283 287 290 293 296 299 302 307 314 318 319 319 323 330 336 340 345 349 351 351 349 346 349 353 357 4 7 2 356 354 356 0 4
231 239 243 242 241 240 238 234 229 227 225 225 225 222 220 219 218 219 218 214 212 212 210 210 214 217 218 216 214 214 215 216 218 218 219 221 224 228 232 235 238 241 244 248 251 254 258 262 264 267 272 277 282 285 288 291 294 298 302 307 312 315 317 319 322 328 332 335 341 346 349 349 347 342 342 344 350 357 1 359 356 355 355 357 359
223 229 239 246 247 246 246 245 241 237 233 230 228 225 222 220 218 218 218 217 214 216 217 216 217 219 221 222 223 223 222 222 223 223 223 224 226 230 233 236 239 241 245 249 252 254 257 262 266 269 272 276 281 286 290 292 294 298 304 308 310 310 313 316 320 325 329 334 338 342 345 345 341 337 336 337 341 349 354 354 351 352 353 355 356
227 225 228 238 246 248 248 248 246 242 239 236 233 229 225 222 220 217 217 217 215 216 219 220 221 222 224 225 227 228 229 229 230 231 231 230 231 233 235 238 241 244 247 252 255 258 261 265 269 273 276 279 281 284 288 291 294 298 303 306 306 307 311 314 316 321 326 331 335 337 339 339 335 331 331 331 334 340 347 348 346 346 349 351 353
229 229 226 227 236 243 245 245 246 245 243 240 236 233 230 227 225 222 219 217 216 215 217 220 221 224 226 228 229 230 231 231 233 235 237 238 238 239 241 244 247 250 252 256 259 261 264 266 269 272 276 277 278 280 285 290 294 296 298 299 298 301 306 310 311 314 319 326 329 329 331 331 328 325 325 325 328 333 340 343 342 343 345 347 348
228 230 229 226 229 237 239 239 240 242 242 241 239 237 234 232 230 228 226 223 220 218 217 218 219 221 224 227 229 231 233 233 233 235 238 240 242 243 244 246 249 251 254 257 259 261 262 264 267 270 273 273 274 277 283 287 289 291 292 294 293 295 300 304 306 308 312 318 321 320 322 326 325 322 320 320 323 328 334 338 340 341 342 343 343
226 228 229 227 225 231 237 237 234 234 236 239 239 238 236 234 232 231 230 229 227 225 223 222 222 222 223 225 227 230 232 234 235 236 238 240 243 244 245 245 247 249 251 254 256 258 260 262 265 267 267 269 272 276 279 281 283 285 285 287 289 291 294 298 301 304 308 313 316 316 317 322 325 321 317 318 321 325 330 334 336 338 339 339 339
227 228 230 230 226 227 233 237 237 234 233 235 237 238 238 236 234 232 232 231 231 231 229 228 228 227 227 227 228 229 231 233 234 236 238 240 243 245 246 246 247 248 249 251 254 256 257 259 262 264 265 268 272 275 273 273 277 278 277 279 282 286 290 291 293 298 303 307 312 314 314 316 320 319 315 316 318 321 325 329 330 332 334 334 335
227 229 230 231 231 230 231 234 238 238 236 235 236 239 241 241 240 238 235 234 233 233 232 232 232 232 231 231 231 231 232 234 235 236 238 240 243 245 247 248 248 249 250 251 253 254 256 257 260 263 264 265 268 271 269 267 269 270 270 273 277 279 282 284 285 289 293 295 299 304 305 306 310 311 309 310 313 314 317 320 323 325 327 327 328
226 229 232 231 231 233 235 235 235 237 238 237 236 237 240 243 245 246 245 242 239 238 237 237 237 237 236 235 235 235 235 237 238 239 240 242 244 247 249 250 250 250 251 252 253 254 254 255 256 259 260 259 260 265 268 264 261 265 269 272 275 277 278 279 280 281 283 285 288 293 295 297 300 302 302 303 306 306 308 312 315 317 318 319 320
226 228 233 233 230 230 235 238 237 235 234 236 237 238 238 239 240 242 244 245 244 242 241 240 240 241 242 241 240 240 240 241 243 244 244 245 245 247 249 251 252 250 249 251 252 253 253 252 251 252 256 257 256 260 266 266 263 264 268 272 276 278 277 278 279 279 280 283 286 289 291 292 293 295 296 297 298 299 301 304 306 308 309 310 313
226 228 233 235 233 230 231 236 240 240 238 236 236 237 239 239 238 237 236 236 237 238 239 239 238 240 242 243 244 244 244 245 246 248 249 249 248 248 247 248 250 250 250 250 251 252 252 251 249 249 253 258 259 260 264 268 269 269 269 271 274 275 274 275 278 279 281 284 288 289 290 289 288 290 292 292 293 293 294 297 298 300 302 305 308
228 229 233 235 236 235 234 235 239 243 244 242 239 237 237 238 239 237 235 234 233 233 234 234 235 236 238 240 242 243 245 246 248 249 250 251 252 252 250 249 249 249 251 253 254 253 253 253 252 251 254 260 264 266 268 270 273 273 273 274 275 274 273 274 276 279 283 287 289 290 290 286 285 286 287 288 288 288 288 290 292 296 300 303 306
235 235 237 238 238 238 238 238 240 243 245 245 243 241 240 239 239 239 238 238 237 237 237 237 237 237 237 238 239 240 241 243 245 247 248 250 251 253 254 254 254 253 253 255 257 257 256 257 258 258 259 262 266 269 271 273 274 275 275 276 275 276 278 280 282 285 290 292 291 292 291 287 285 285 285 285 286 286 286 288 291 295 298 301 303
242 240 240 240 240 239 239 242 244 245 244 244 244 244 244 244 245 245 244 243 243 242 242 242 243 242 242 242 242 243 244 244 245 246 247 248 249 251 254 257 260 263 262 261 260 259 260 262 263 265 266 267 269 272 273 275 275 276 277 277 277 279 284 288 289 291 293 292 290 290 291 290 288 287 287 286 286 286 287 289 291 292 295 297 299
250 247 245 244 243 240 240 243 247 247 246 246 246 247 247 248 250 251 252 250 249 247 245 244 244 245 245 245 246 246 247 248 249 250 250 250 249 250 253 255 259 262 264 264 264 265 266 267 267 267 268 269 271 272 273 274 275 277 279 280 280 283 287 290 291 290 290 289 287 287 289 289 288 288 288 287 286 286 288 289 290 290 292 294 295
Height
5944 5944 5944 5944 5945 5945 5945 5945 5944 5944 5944 5944 5944 5944 5945 5945 5945 5945 5945 5946 5946 5947 5947 5947 5947 5947 5947 5947 5947 5947 5947 5947 5947 5948 5948 5948 5949 5949 5949 5949 5949 5949 5949 5948 5948 5948 5948 5948 5948 5948 5948 5947 5947 5946 5946 5945 5945 5945 5944 5944 5943 5943 5942 5941 5941 5940 5939 5938 5938 5937 5936 5935 5934 5932 5931 5929 5927 5925 5924 5923 5921 5919 5918 5916 5914
5945 5946 5946 5946 5946 5946 5946 5946 5946 5946 5946 5946 5946 5946 5947 5947 5947 5947 5947 5948 5948 5949 5949 5949 5949 5949 5949 5949 5949 5948 5948 5949 5949 5949 5949 5950 5950 5950 5951 5951 5951 5950 5950 5950 5950 5950 5950 5950 5950 5950 5949 5949 5948 5948 5948 5947 5947 5946 5946 5946 5945 5944 5944 5943 5942 5942 5941 5941 5940 5939 5938 5937 5935 5933 5932 5930 5928 5927 5926 5924 5923 5921 5919 5918 5915
5947 5947 5948 5948 5948 5948 5948 5948 5948 5948 5948 5948 5948 5948 5948 5948 5948 5948 5949 5950 5950 5951 5951 5951 5951 5951 5951 5950 5950 5950 5950 5950 5951 5951 5951 5951 5951 5952 5952 5952 5952 5952 5952 5952 5952 5952 5952 5952 5952 5951 5951 5950 5950 5950 5949 5949 5949 5948 5948 5947 5947 5946 5945 5945 5944 5944 5943 5943 5942 5941 5940 5938 5936 5935 5934 5932 5930 5929 5927 5926 5924 5923 5921 5919 5916
5948 5949 5949 5949 5950 5950 5950 5950 5950 5950 5950 5950 5950 5950 5950 5950 5950 5951 5952 5952 5952 5952 5952 5953 5953 5952 5952 5952 5952 5951 5951 5952 5952 5953 5952 5952 5953 5953 5953 5953 5953 5953 5953 5954 5954 5954 5954 5953 5953 5953 5952 5952 5952 5952 5951 5951 5951 5950 5950 5949 5949 5948 5948 5947 5947 5946 5946 5945 5944 5943 5941 5939 5938 5937 5935 5933 5931 5930 5929 5927 5926 5924 5922 5920 5917
5950 5950 5951 5951 5951 5952 5952 5952 5952 5952 5952 5952 5952 5952 5952 5952 5953 5953 5954 5954 5954 5954 5954 5954 5954 5953 5953 5953 5953 5953 5953 5953 5954 5954 5954 5954 5954 5954 5955 5955 5955 5955 5955 5955 5956 5955 5955 5955 5955 5954 5954 5954 5954 5954 5953 5953 5953 5953 5952 5951 5951 5950 5950 5949 5949 5948 5948 5947 5946 5944 5942 5941 5940 5938 5936 5934 5933 5932 5930 5929 5927 5925 5923 5921 5918
5951 5952 5952 5952 5953 5953 5953 5953 5953 5954 5954 5953 5954 5954 5954 5954 5955 5955 5955 5955 5955 5955 5955 5955 5955 5955 5955 5955 5954 5954 5954 5955 5955 5956 5956 5955 5955 5956 5956 5956 5956 5956 5957 5957 5957 5957 5957 5957 5956 5956 5955 5955 5955 5956 5955 5955 5955 5955 5954 5954 5953 5953 5952 5952 5951 5951 5950 5949 5947 5946 5944 5943 5941 5939 5938 5936 5934 5933 5932 5930 5929 5927 5924 5922 5919
5953 5953 5953 5954 5954 5954 5955 5955 5955 5955 5955 5955 5955 5956 5956 5957 5956 5956 5956 5955 5956 5956 5956 5956 5956 5956 5956 5956 5956 5955 5956 5956 5957 5957 5957 5957 5957 5957 5957 5957 5958 5958 5958 5958 5959 5959 5959 5958 5958 5957 5957 5957 5957 5957 5957 5957 5957 5957 5956 5956 5955 5955 5954 5954 5953 5952 5951 5950 5949 5947 5946 5945 5943 5941 5939 5938 5936 5934 5933 5932 5930 5928 5925 5922 5920
5954 5954 5955 5955 5955 5956 5956 5956 5956 5956 5956 5956 5957 5958 5958 5958 5958 5957 5957 5957 5957 5957 5957 5958 5957 5958 5958 5957 5957 5957 5957 5958 5958 5959 5959 5958 5958 5958 5959 5959 5959 5959 5960 5960 5960 5961 5960 5960 5960 5959 5959 5959 5959 5959 5959 5959 5959 5959 5958 5958 5957 5957 5956 5956 5955 5954 5953 5952 5950 5949 5948 5946 5945 5943 5941 5939 5937 5936 5934 5933 5931 5929 5926 5923 5921
5956 5956 5956 5957 5957 5957 5957 5957 5957 5958 5958 5958 5959 5959 5959 5959 5959 5959 5959 5958 5958 5958 5959 5959 5959 5959 5959 5959 5958 5958 5959 5959 5960 5960 5960 5960 5960 5960 5960 5961 5961 5961 5961 5961 5962 5962 5962 5962 5962 5961 5961 5961 5961 5961 5961 5961 5961 5960 5960 5960 5959 5959 5958 5957 5957 5956 5955 5954 5952 5951 5950 5948 5946 5945 5943 5941 5939 5937 5936 5934 5932 5930 5927 5925 5922
5957 5957 5957 5958 5958 5958 5958 5958 5959 5959 5960 5960 5960 5960 5960 5960 5960 5960 5960 5960 5960 5960 5960 5960 5960 5960 5960 5960 5960 5960 5961 5961 5961 5961 5962 5961 5961 5962 5962 5962 5963 5963 5963 5963 5963 5963 5964 5964 5963 5963 5963 5963 5963 5963 5963 5963 5963 5963 5962 5962 5961 5961 5960 5959 5959 5958 5957 5956 5954 5953 5952 5950 5948 5946 5944 5942 5940 5939 5937 5935 5933 5931 5929 5926 5924
5958 5958 5958 5959 5959 5959 5959 5960 5960 5961 5961 5961 5961 5961 5961 5961 5961 5961 5961 5961 5961 5961 5961 5962 5962 5962 5962 5962 5962 5962 5963 5963 5963 5963 5963 5963 5962 5963 5964 5964 5965 5965 5964 5964 5965 5965 5965 5966 5965 5965 5965 5965 5965 5965 5965 5965 5965 5965 5964 5964 5963 5963 5962 5961 5960 5959 5958 5957 5956 5955 5953 5951 5950 5948 5946 5944 5942 5940 5938 5936 5934 5932 5930 5927 5925
5959 5959 5959 5960 5960 5961 5961 5961 5962 5962 5962 5962 5962 5962 5962 5962 5962 5962 5962 5962 5962 5962 5962 5963 5963 5963 5963 5964 5964 5964 5964 5964 5965 5965 5965 5964 5964 5964 5965 5965 5966 5966 5966 5966 5967 5967 5967 5967 5967 5966 5966 5966 5966 5966 5966 5967 5967 5967 5966 5966 5965 5964 5964 5963 5962 5961 5960 5959 5957 5956 5955 5953 5951 5949 5948 5946 5944 5942 5940 5938 5936 5934 5931 5929 5926
5959 5960 5961 5961 5962 5962 5962 5962 5963 5963 5963 5963 5963 5964 5963 5963 5963 5963 5963 5963 5963 5963 5963 5964 5964 5964 5964 5965 5965 5965 5966 5966 5966 5967 5966 5966 5966 5966 5966 5967 5967 5967 5967 5968 5968 5968 5969 5969 5969 5968 5968 5968 5968 5968 5968 5969 5969 5969 5968 5967 5967 5966 5965 5965 5964 5963 5961 5960 5959 5958 5956 5955 5953 5951 5949 5948 5946 5943 5941 5939 5937 5935 5933 5930 5927
5960 5961 5961 5962 5963 5963 5963 5963 5963 5964 5964 5964 5964 5964 5964 5964 5964 5964 5964 5964 5964 5964 5964 5965 5964 5965 5965 5966 5966 5967 5967 5967 5968 5968 5968 5968 5968 5968 5968 5968 5969 5969 5969 5969 5969 5970 5970 5970 5970 5970 5970 5970 5969 5969 5970 5970 5971 5970 5970 5969 5968 5968 5967 5966 5965 5964 5963 5961 5960 5959 5957 5956 5954 5953 5951 5949 5947 5945 5943 5941 5938 5936 5934 5931 5929
5961 5962 5962 5963 5963 5963 5964 5964 5964 5964 5965 5965 5965 5965 5965 5965 5965 5965 5965 5965 5965 5965 5965 5966 5966 5966 5966 5967 5967 5968 5968 5969 5969 5970 5970 5970 5970 5969 5969 5970 5970 5970 5970 5970 5971 5971 5971 5971 5972 5972 5972 5971 5970 5970 5971 5972 5972 5972 5971 5971 5970 5969 5968 5967 5966 5965 5964 5963 5961 5960 5959 5957 5956 5954 5952 5950 5948 5946 5944 5942 5940 5937 5935 5933 5930
5962 5962 5962 5963 5963 5964 5964 5964 5965 5965 5965 5965 5966 5966 5966 5966 5966 5965 5966 5966 5966 5966 5966 5967 5967 5967 5967 5968 5968 5969 5970 5970 5971 5971 5971 5972 5972 5971 5971 5971 5972 5972 5972 5972 5972 5972 5972 5973 5973 5973 5973 5973 5972 5972 5972 5973 5973 5973 5972 5972 5971 5970 5969 5968 5967 5966 5965 5964 5962 5961 5960 5958 5956 5955 5953 5951 5949 5947 5945 5943 5941 5939 5936 5934 5931
5962 5963 5963 5963 5963 5964 5965 5965 5965 5965 5965 5966 5966 5966 5967 5967 5967 5967 5967 5967 5967 5967 5967 5967 5968 5968 5969 5969 5969 5970 5971 5971 5972 5972 5972 5973 5973 5973 5973 5973 5973 5973 5973 5974 5973 5973 5974 5974 5974 5974 5974 5974 5974 5973 5974 5974 5974 5974 5973 5972 5972 5971 5970 5969 5968 5967 5966 5965 5963 5962 5961 5959 5957 5956 5954 5952 5950 5948 5946 5944 5942 5940 5938 5935 5933
5963 5963 5963 5963 5964 5964 5965 5966 5966 5966 5966 5966 5966 5966 5967 5967 5968 5968 5968 5968 5968 5968 5968 5968 5968 5969 5969 5970 5970 5971 5972 5972 5973 5973 5974 5974 5975 5975 5975 5975 5974 5975 5975 5975 5974 5974 5975 5975 5975 5975 5975 5975 5975 5975 5975 5975 5975 5974 5974 5973 5973 5972 5971 5970 5969 5968 5967 5966 5964 5963 5962 5960 5958 5957 5955 5953 5951 5949 5947 5945 5943 5941 5939 5937 5934
5963 5963 5963 5964 5964 5964 5965 5966 5966 5966 5967 5967 5967 5967 5967 5968 5968 5969 5969 5969 5969 5969 5969 5969 5969 5970 5970 5971 5971 5971 5972 5973 5974 5974 5975 5975 5976 5976 5976 5976 5976 5976 5976 5975 5975 5975 5976 5976 5976 5977 5976 5976 5976 5976 5976 5976 5976 5975 5974 5974 5973 5973 5972 5971 5970 5969 5968 5967 5965 5964 5963 5961 5959 5958 5956 5955 5953 5951 5948 5946 5944 5942 5940 5938 5936
5963 5963 5963 5964 5964 5965 5965 5966 5966 5967 5967 5967 5967 5967 5967 5968 5969 5969 5969 5969 5970 5970 5970 5970 5970 5971 5971 5971 5972 5972 5973 5974 5975 5975 5976 5976 5977 5977 5977 5977 5977 5977 5976 5976 5976 5976 5977 5977 5977 5977 5977 5977 5977 5977 5977 5977 5976 5976 5975 5974 5974 5973 5973 5972 5970 5969 5968 5967 5966 5965 5963 5962 5961 5959 5957 5956 5954 5952 5950 5947 5945 5943 5941 5939 5937
5963 5963 5964 5964 5965 5965 5965 5966 5967 5967 5967 5968 5968 5968 5968 5968 5969 5969 5970 5970 5970 5971 5971 5971 5971 5972 5972 5972 5973 5973 5974 5975 5975 5976 5977 5977 5978 5978 5978 5979 5978 5978 5977 5977 5977 5977 5977 5978 5978 5978 5978 5978 5978 5978 5978 5978 5977 5976 5976 5975 5974 5974 5973 5972 5971 5970 5969 5968 5967 5966 5964 5963 5962 5960 5958 5957 5955 5953 5951 5949 5947 5945 5943 5940 5938
5962 5963 5964 5964 5965 5965 5966 5966 5967 5967 5968 5968 5968 5968 5969 5969 5969 5969 5970 5971 5971 5971 5972 5972 5972 5972 5973 5973 5974 5974 5975 5975 5976 5976 5977 5978 5978 5979 5979 5979 5979 5979 5978 5978 5978 5978 5978 5978 5978 5978 5978 5978 5979 5979 5978 5978 5978 5977 5976 5976 5975 5975 5974 5973 5972 5971 5970 5969 5967 5966 5965 5964 5962 5961 5959 5958 5956 5954 5952 5950 5948 5946 5944 5942 5940
5962 5963 5963 5964 5965 5965 5966 5966 5966 5967 5968 5968 5969 5969 5969 5969 5970 5970 5970 5971 5972 5972 5972 5973 5973 5973 5973 5974 5974 5975 5976 5976 5976 5977 5978 5978 5979 5979 5979 5980 5980 5979 5979 5978 5978 5978 5978 5979 5979 5979 5979 5979 5979 5979 5979 5978 5978 5977 5977 5976 5976 5975 5974 5974 5973 5972 5970 5969 5968 5967 5965 5964 5963 5962 5960 5958 5956 5955 5953 5951 5949 5947 5945 5943 5941
5962 5962 5963 5964 5964 5965 5966 5966 5966 5967 5967 5968 5969 5969 5970 5970 5970 5970 5971 5971 5972 5972 5973 5973 5974 5974 5974 5975 5975 5976 5976 5977 5978 5978 5978 5979 5979 5979 5980 5980 5980 5980 5979 5979 5979 5979 5979 5979 5979 5979 5979 5979 5979 5979 5979 5978 5978 5978 5978 5977 5976 5976 5975 5974 5973 5972 5971 5969 5968 5967 5966 5964 5963 5962 5960 5959 5957 5955 5954 5952 5950 5948 5946 5944 5942
5962 5962 5963 5963 5964 5965 5965 5965 5966 5966 5967 5968 5968 5969 5970 5970 5970 5971 5971 5971 5972 5973 5973 5974 5974 5974 5975 5975 5976 5976 5977 5977 5978 5979 5979 5979 5979 5980 5980 5980 5980 5980 5980 5979 5979 5980 5980 5980 5980 5979 5979 5979 5979 5979 5979 5979 5978 5978 5978 5977 5977 5976 5975 5974 5973 5972 5971 5970 5968 5967 5966 5965 5963 5962 5961 5959 5957 5956 5954 5952 5951 5949 5947 5945 5943
5962 5962 5962 5963 5964 5964 5965 5965 5965 5966 5966 5967 5968 5969 5969 5970 5970 5971 5971 5972 5972 5973 5973 5974 5974 5975 5975 5975 5976 5977 5977 5978 5978 5979 5980 5980 5979 5980 5980 5980 5980 5980 5980 5980 5980 5980 5980 5980 5980 5979 5979 5979 5979 5979 5979 5978 5978 5978 5978 5977 5977 5976 5975 5974 5974 5972 5971 5970 5968 5967 5966 5965 5963 5962 5961 5959 5957 5956 5954 5953 5951 5949 5947 5946 5944
5962 5962 5962 5963 5963 5964 5964 5964 5965 5966 5966 5967 5967 5968 5969 5969 5970 5971 5971 5971 5972 5972 5973 5974 5975 5975 5975 5976 5976 5977 5978 5978 5978 5978 5979 5979 5980 5980 5980 5980 5980 5980 5980 5980 5980 5980 5980 5979 5979 5979 5979 5979 5979 5979 5978 5978 5978 5978 5978 5977 5977 5976 5975 5975 5974 5972 5971 5970 5968 5967 5966 5965 5963 5962 5960 5959 5957 5956 5954 5952 5951 5949 5947 5946 5944
5961 5962 5962 5962 5963 5963 5963 5964 5965 5965 5966 5966 5967 5967 5968 5968 5969 5970 5971 5971 5972 5972 5973 5974 5974 5975 5975 5976 5977 5977 5977 5978 5978 5978 5979 5979 5980 5980 5980 5980 5980 5981 5981 5981 5981 5980 5980 5980 5979 5979 5979 5979 5979 5978 5978 5978 5978 5977 5977 5977 5976 5976 5975 5974 5973 5972 5971 5970 5968 5967 5966 5964 5963 5962 5960 5959 5957 5956 5954 5952 5951 5949 5947 5945 5944
5960 5961 5962 5962 5962 5962 5963 5963 5964 5965 5965 5966 5966 5966 5967 5967 5969 5970 5970 5971 5971 5972 5973 5974 5974 5975 5975 5976 5976 5977 5977 5977 5978 5979 5979 5979 5979 5979 5980 5980 5980 5980 5980 5981 5980 5980 5980 5980 5979 5979 5979 5979 5978 5978 5978 5978 5977 5977 5977 5976 5976 5975 5975 5974 5973 5972 5971 5969 5968 5967 5965 5964 5963 5962 5960 5959 5957 5955 5954 5952 5951 5949 5947 5945 5944
5959 5960 5961 5961 5962 5962 5962 5963 5963 5964 5964 5965 5965 5966 5966 5966 5967 5968 5969 5970 5971 5971 5972 5973 5973 5974 5975 5975 5976 5977 5977 5977 5978 5978 5979 5979 5979 5979 5979 5979 5979 5980 5980 5980 5980 5980 5980 5979 5979 5979 5979 5978 5978 5978 5978 5977 5977 5977 5976 5976 5975 5974 5974 5973 5972 5971 5970 5968 5967 5966 5964 5963 5962 5961 5960 5958 5957 5955 5954 5952 5951 5949 5947 5946 5944
5958 5959 5960 5960 5961 5961 5961 5962 5962 5963 5963 5964 5965 5965 5965 5966 5966 5967 5968 5969 5970 5971 5971 5972 5973 5973 5974 5975 5975 5976 5976 5977 5977 5978 5978 5979 5979 5979 5979 5979 5979 5979 5980 5980 5979 5979 5979 5979 5979 5979 5979 5978 5978 5978 5977 5977 5976 5976 5975 5975 5974 5974 5973 5972 5971 5970 5968 5967 5966 5965 5964 5962 5961 5960 5959 5958 5956 5955 5954 5952 5951 5949 5947 5946 5944
5957 5957 5958 5959 5960 5960 5961 5961 5961 5962 5962 5963 5964 5964 5965 5965 5966 5966 5967 5968 5969 5970 5970 5971 5972 5972 5973 5974 5975 5975 5976 5976 5977 5977 5978 5978 5979 5979 5979 5979 5979 5979 5979 5979 5979 5979 5979 5978 5978 5978 5978 5978 5977 5977 5977 5976 5976 5975 5974 5974 5974 5973 5972 5971 5970 5969 5968 5967 5966 5964 5963 5962 5960 5959 5958 5957 5956 5955 5953 5952 5950 5949 5947 5946 5944
5956 5957 5957 5958 5959 5959 5960 5960 5961 5961 5962 5962 5963 5963 5964 5965 5965 5966 5966 5967 5968 5969 5970 5970 5971 5971 5972 5973 5974 5974 5975 5976 5976 5977 5977 5978 5978 5978 5978 5978 5978 5978 5978 5978 5978 5978 5978 5978 5977 5977 5977 5977 5976 5976 5976 5975 5975 5974 5973 5973 5973 5972 5971 5970 5969 5968 5967 5967 5965 5964 5963 5961 5960 5959 5957 5956 5955 5954 5953 5951 5950 5948 5947 5946 5944
5956 5957 5957 5958 5959 5959 5959 5960 5960 5960 5961 5961 5962 5963 5964 5964 5965 5966 5966 5967 5967 5968 5969 5969 5970 5971 5971 5972 5972 5973 5974 5975 5975 5976 5976 5977 5977 5977 5977 5977 5977 5977 5978 5978 5977 5977 5977 5977 5977 5976 5976 5976 5975 5975 5975 5974 5974 5973 5972 5971 5971 5971 5970 5969 5968 5967 5967 5966 5965 5964 5962 5961 5960 5958 5957 5956 5955 5954 5952 5951 5949 5948 5947 5946 5944
5957 5957 5958 5958 5959 5959 5959 5959 5960 5960 5960 5961 5962 5962 5963 5964 5965 5966 5966 5967 5967 5967 5968 5969 5969 5970 5971 5971 5971 5972 5973 5974 5974 5974 5975 5975 5976 5976 5976 5976 5976 5976 5977 5977 5977 5977 5976 5976 5976 5975 5975 5975 5974 5974 5973 5973 5972 5972 5971 5970 5970 5969 5969 5968 5967 5966 5966 5965 5964 5963 5962 5961 5960 5958 5957 5956 5954 5953 5952 5951 5949 5948 5947 5945 5944
5956 5957 5958 5959 5959 5959 5959 5960 5960 5960 5960 5960 5961 5962 5963 5963 5964 5965 5966 5967 5967 5967 5967 5968 5969 5970 5970 5970 5971 5971 5972 5972 5973 5973 5973 5974 5974 5974 5974 5975 5975 5975 5975 5975 5975 5975 5975 5975 5975 5974 5974 5974 5973 5973 5972 5972 5971 5971 5970 5969 5969 5968 5968 5967 5966 5965 5965 5964 5963 5963 5962 5961 5960 5958 5957 5956 5954 5953 5952 5950 5949 5948 5946 5945 5944
5954 5956 5957 5958 5959 5960 5960 5960 5960 5960 5960 5960 5960 5960 5961 5962 5963 5964 5965 5966 5966 5967 5967 5968 5968 5969 5970 5970 5970 5971 5971 5971 5971 5972 5972 5972 5972 5973 5973 5973 5973 5973 5974 5974 5974 5974 5974 5974 5974 5973 5973 5973 5972 5971 5971 5971 5970 5969 5969 5968 5968 5967 5967 5966 5965 5965 5964 5963 5963 5962 5961 5960 5959 5958 5957 5955 5954 5953 5951 5950 5949 5948 5946 5945 5944
5952 5953 5955 5956 5958 5959 5959 5960 5959 5959 5959 5959 5959 5959 5959 5960 5961 5962 5963 5964 5965 5966 5966 5967 5968 5968 5969 5970 5970 5970 5970 5971 5971 5971 5971 5971 5971 5971 5971 5971 5972 5972 5972 5972 5972 5972 5973 5972 5972 5972 5972 5972 5971 5970 5970 5970 5969 5968 5968 5967 5967 5966 5966 5965 5964 5964 5963 5963 5962 5961 5960 5960 5959 5957 5956 5955 5954 5953 5952 5950 5949 5947 5946 5945 5944
5951 5951 5952 5953 5955 5956 5957 5958 5958 5958 5958 5958 5958 5958 5958 5958 5959 5960 5961 5962 5963 5964 5964 5966 5966 5967 5968 5969 5969 5969 5970 5970 5970 5970 5970 5970 5970 5970 5970 5970 5971 5971 5971 5971 5971 5971 5971 5971 5971 5971 5971 5971 5970 5969 5969 5968 5968 5967 5967 5966 5965 5964 5964 5964 5963 5963 5963 5962 5961 5961 5960 5959 5958 5957 5956 5955 5954 5953 5951 5950 5948 5947 5946 5945 5943
5949 5949 5950 5951 5952 5953 5954 5955 5956 5956 5956 5956 5956 5956 5957 5957 5957 5958 5958 5959 5960 5961 5962 5963 5964 5965 5966 5967 5968 5968 5969 5969 5969 5969 5969 5969 5969 5969 5970 5970 5970 5970 5970 5970 5970 5971 5971 5970 5970 5970 5970 5970 5969 5968 5968 5967 5967 5966 5966 5965 5965 5963 5963 5963 5962 5962 5962 5962 5961 5960 5960 5959 5958 5956 5955 5954 5953 5952 5951 5950 5948 5947 5945 5944 5943
5946 5947 5948 5948 5949 5950 5952 5953 5953 5954 5954 5954 5954 5955 5955 5955 5956 5956 5957 5958 5959 5959 5960 5960 5961 5962 5963 5964 5965 5966 5967 5967 5968 5968 5968 5968 5968 5968 5969 5969 5969 5969 5969 5969 5969 5969 5969 5969 5969 5969 5969 5968 5968 5967 5967 5966 5966 5965 5964 5964 5964 5963 5963 5962 5961 5961 5961 5961 5961 5960 5959 5958 5957 5956 5954 5953 5952 5951 5950 5949 5948 5946 5945 5944 5942
5944 5945 5946 5946 5947 5947 5949 5950 5951 5952 5952 5952 5952 5952 5953 5953 5954 5955 5956 5957 5957 5958 5959 5959 5959 5960 5960 5961 5962 5963 5964 5965 5966 5966 5967 5967 5967 5967 5967 5967 5967 5967 5968 5968 5968 5968 5968 5968 5968 5968 5968 5967 5966 5967 5966 5965 5965 5964 5964 5963 5963 5963 5962 5962 5960 5959 5959 5960 5960 5959 5958 5957 5957 5956 5954 5952 5951 5950 5950 5949 5947 5946 5945 5943 5942
5942 5943 5943 5944 5944 5945 5945 5947 5948 5949 5949 5949 5950 5950 5951 5952 5952 5953 5954 5955 5956 5957 5958 5958 5958 5958 5959 5959 5960 5960 5961 5962 5963 5964 5964 5965 5965 5965 5965 5965 5965 5966 5966 5966 5966 5966 5967 5967 5966 5966 5966 5966 5965 5965 5965 5964 5964 5964 5963 5963 5962 5962 5962 5961 5960 5958 5957 5958 5958 5958 5956 5955 5955 5955 5953 5952 5950 5949 5948 5948 5947 5946 5944 5943 5942
5940 5941 5941 5941 5942 5942 5943 5944 5945 5946 5947 5947 5948 5949 5950 5951 5952 5952 5952 5953 5954 5955 5956 5956 5956 5956 5957 5957 5958 5958 5959 5959 5960 5961 5962 5962 5962 5962 5963 5963 5964 5964 5964 5965 5965 5965 5965 5965 5965 5965 5965 5965 5964 5964 5963 5963 5963 5963 5962 5962 5961 5961 5961 5960 5959 5958 5956 5956 5957 5957 5955 5954 5954 5954 5952 5951 5950 5948 5947 5946 5946 5945 5944 5942 5941
5937 5938 5939 5940 5940 5940 5940 5941 5942 5943 5944 5945 5946 5947 5948 5950 5951 5952 5952 5952 5952 5953 5954 5954 5955 5955 5955 5955 5956 5956 5957 5957 5958 5958 5959 5960 5960 5961 5961 5962 5963 5963 5963 5963 5963 5963 5963 5964 5964 5963 5963 5963 5963 5962 5962 5962 5962 5961 5961 5960 5960 5960 5959 5958 5958 5957 5955 5954 5955 5956 5955 5952 5952 5952 5951 5950 5948 5947 5945 5945 5944 5943 5942 5941 5940
5934 5935 5936 5937 5937 5937 5938 5938 5939 5940 5942 5943 5944 5945 5946 5947 5948 5949 5950 5950 5950 5951 5951 5952 5953 5953 5954 5954 5954 5955 5955 5955 5956 5956 5957 5958 5959 5959 5960 5961 5961 5962 5962 5962 5961 5961 5962 5962 5962 5962 5961 5961 5961 5961 5960 5960 5960 5960 5959 5959 5958 5957 5957 5956 5955 5954 5952 5951 5952 5954 5953 5951 5949 5950 5949 5948 5947 5945 5943 5942 5941 5941 5940 5939 5938
5931 5931 5932 5933 5934 5934 5935 5936 5936 5938 5939 5941 5943 5943 5943 5943 5943 5944 5945 5945 5946 5947 5947 5948 5949 5950 5951 5951 5952 5953 5953 5953 5954 5954 5955 5956 5956 5957 5958 5959 5959 5959 5960 5960 5959 5959 5959 5959 5960 5959 5959 5959 5959 5959 5958 5958 5958 5957 5957 5957 5956 5955 5954 5953 5953 5951 5950 5949 5949 5950 5951 5949 5947 5947 5946 5945 5944 5943 5941 5940 5939 5938 5938 5937 5936
5927 5928 5929 5930 5930 5931 5932 5933 5934 5936 5937 5939 5940 5940 5939 5939 5938 5938 5939 5940 5941 5942 5943 5944 5945 5946 5947 5948 5949 5949 5950 5951 5951 5952 5952 5953 5954 5955 5956 5957 5957 5957 5958 5957 5957 5957 5957 5956 5957 5957 5957 5956 5956 5956 5956 5955 5955 5954 5954 5954 5953 5951 5950 5951 5950 5949 5948 5946 5945 5947 5948 5946 5944 5944 5944 5942 5941 5940 5939 5937 5936 5935 5934 5934 5933
5925 5926 5926 5927 5927 5928 5929 5931 5933 5934 5935 5936 5936 5935 5935 5935 5934 5934 5935 5937 5938 5940 5942 5943 5943 5944 5945 5945 5946 5946 5946 5947 5947 5947 5948 5949 5951 5952 5953 5954 5954 5955 5956 5955 5954 5954 5954 5954 5954 5954 5954 5954 5954 5953 5953 5952 5952 5950 5950 5951 5949 5947 5947 5948 5948 5947 5946 5944 5942 5943 5944 5943 5942 5941 5941 5940 5939 5937 5936 5935 5933 5932 5931 5930 5930
5923 5923 5924 5925 5925 5925 5926 5928 5930 5931 5932 5931 5931 5931 5931 5932 5932 5933 5934 5935 5937 5939 5940 5941 5942 5942 5943 5943 5944 5944 5944 5944 5943 5944 5944 5946 5947 5949 5950 5951 5952 5953 5953 5952 5950 5951 5951 5951 5952 5952 5952 5951 5951 5950 5950 5949 5948 5947 5946 5947 5946 5944 5944 5945 5945 5945 5945 5942 5938 5939 5941 5940 5938 5938 5938 5937 5936 5934 5933 5932 5931 5929 5928 5927 5927
5919 5920 5921 5922 5923 5922 5922 5925 5927 5928 5928 5927 5927 5928 5929 5930 5931 5932 5932 5934 5935 5935 5936 5938 5939 5940 5941 5941 5941 5942 5942 5942 5941 5942 5942 5943 5944 5945 5946 5947 5949 5950 5949 5947 5947 5948 5948 5949 5949 5949 5949 5949 5948 5947 5947 5945 5944 5943 5943 5943 5942 5941 5942 5943 5942 5942 5942 5940 5936 5935 5937 5937 5936 5934 5934 5935 5934 5931 5930 5929 5928 5927 5926 5925 5924